Lid_Strength_Index
16 16 17 17 18 19 19 20 20 20 21 21 21 21 21 21 21 21 21 21 21 21 20 21 21 20 20 19 18 18 18 17 19 17 16 15 15 14 13 13 12 12 12
16 17 17 18 19 19 20 20 20 21 21 21 22 22 22 22 22 22 22 22 22 22 22 22 22 21 21 20 20 20 20 19 19 20 18 17 17 16 15 15 13 11 12
16 17 18 19 19 20 20 21 21 21 22 22 22 23 23 23 23 22 23 23 23 23 22 22 22 21 21 20 20 20 19 18 19 20 20 17 17 17 16 14 14 13 12
16 17 18 19 20 20 21 21 22 22 22 23 23 23 23 23 23 23 23 23 23 23 21 21 20 20 20 20 19 19 19 19 19 19 19 19 18 15 15 16 15 14 13
17 18 19 20 20 20 21 22 22 22 23 23 23 23 23 24 23 23 23 23 22 21 20 20 19 19 18 17 18 18 18 18 18 18 19 19 17 17 17 15 16 14 13
17 18 19 20 20 21 22 22 22 23 23 23 23 24 24 23 21 20 20 21 21 21 21 20 19 19 19 17 15 14 15 17 17 17 18 17 17 16 15 15 15 15 16
18 19 20 20 22 22 22 23 23 23 23 23 23 23 24 23 21 19 19 20 21 21 21 20 19 18 18 18 16 15 14 13 13 16 17 16 16 15 14 14 14 14 14
19 19 20 21 22 22 22 23 23 23 23 23 23 23 23 23 20 20 19 20 20 20 20 19 19 18 17 16 16 17 16 15 15 14 15 15 15 14 14 14 14 14 13
20 20 20 20 21 22 23 23 23 23 23 23 23 24 24 24 22 20 19 20 20 20 18 18 17 17 16 15 16 17 16 16 13 12 12 12 11 10 11 13 14 15 15
19 20 20 20 21 22 22 23 22 22 23 23 23 23 23 24 22 20 18 20 21 20 18 17 16 17 15 14 16 17 18 17 15 15 14 13 12 12 10 12 12 14 14
19 20 21 21 22 22 23 23 23 23 23 23 23 23 23 22 22 19 18 18 19 19 19 19 18 16 14 15 14 17 17 15 14 15 14 13 13 12 11 12 12 12 14
20 21 22 22 22 22 23 24 25 24 24 24 24 23 21 20 20 19 17 17 16 19 19 18 17 15 15 15 16 15 15 14 18 17 17 16 14 13 12 11 10 10 11
22 23 24 24 25 24 25 26 25 24 24 24 23 23 22 21 20 19 18 17 17 17 18 16 16 16 17 17 17 16 17 18 18 19 19 17 15 13 11 11 10 10 10
24 24 25 25 26 25 24 24 24 24 23 23 23 23 23 22 21 21 19 20 16 17 17 20 19 18 18 18 20 18 17 18 18 19 18 17 16 15 15 13 12 10 12
24 25 25 26 25 25 23 24 22 21 22 22 23 23 23 24 22 17 17 17 17 17 21 24 23 22 22 22 21 19 18 18 18 18 19 19 18 16 16 14 14 11 12
24 25 26 26 24 24 24 23 19 20 18 19 19 21 22 20 18 16 15 15 16 16 27 26 24 23 24 23 22 20 19 19 19 18 18 18 18 18 18 17 16 16 12
23 24 25 24 24 24 25 25 24 21 18 19 20 20 19 19 17 17 15 16 17 20 31 26 25 24 24 22 20 20 20 20 18 18 18 19 17 18 19 19 18 17 16
22 23 24 24 24 23 24 24 24 25 25 25 21 21 20 19 18 17 16 21 29 25 30 26 26 25 24 21 20 20 20 20 19 19 19 18 19 20 20 20 20 20 18
23 24 23 23 23 22 22 23 24 25 26 27 26 22 24 19 18 18 19 30 33 33 29 27 26 25 23 21 20 20 20 21 19 19 18 19 20 20 21 20 20 20 20
21 22 22 23 23 23 24 26 26 27 27 27 27 27 29 28 31 33 34 35 35 34 29 27 26 25 22 21 21 20 20 21 19 18 19 19 20 20 20 21 21 22 21
22 23 23 24 24 25 26 27 26 26 26 27 29 29 23 31 34 35 36 36 36 34 29 27 26 24 22 21 21 21 21 21 19 18 19 20 20 21 20 20 21 21 21
23 25 25 26 25 25 26 26 26 26 27 28 30 30 21 31 34 37 37 37 35 34 30 29 26 24 22 22 22 21 21 21 19 18 19 20 20 21 21 21 21 21 21
24 25 26 27 26 27 27 27 27 27 28 29 29 30 32 35 36 37 37 37 35 32 30 30 27 25 22 21 21 21 20 21 18 18 19 20 21 21 21 22 22 21 20
25 26 27 27 27 26 27 27 27 27 28 30 30 32 34 36 37 36 37 37 35 33 31 29 27 26 24 23 22 20 19 19 16 18 19 21 21 21 22 22 22 22 22
26 27 27 27 26 27 28 28 28 28 29 29 31 32 34 34 35 37 37 36 33 32 30 29 27 26 25 24 23 21 19 18 15 17 19 20 21 22 22 23 23 23 23
27 26 26 26 27 27 27 27 28 28 29 30 31 32 32 33 34 36 36 34 32 31 30 28 27 28 26 23 20 19 18 14 14 17 19 20 21 22 23 23 24 24 25